This demonstration page uses our WeatherBlox Daily Observations layout. Learn more.

Left ArrowRight Arrow

Hourly Observations for July 24, 2018

Temp ( °F °C ) Dew Point ( °F °C ) Humidity (%) Winds ( mph kmh ) Pressure ( in mb ) Visibility ( mi km ) Precip ( " mm )
12:59 am 00:59 Mostly Cloudy with Light Rain 76 24.4 74 23.3 94 94 SE 8 13 30.05 1018 5 8 0.13 3.30
1:59 am 01:59 Mostly Cloudy with Light Rain 75 23.9 72 22.2 90 90 SE 9 15 30.05 1018 10 16 0.03 0.76
2:29 am 02:29 Cloudy with Thunderstorms 74 23.3 72 22.2 94 94 SSE 5 7 30.03 1017 9 14 0.01 0.25
2:44 am 02:44 Cloudy with Rain 74 23.3 72 22.2 94 94 SE 9 15 30.03 1017 3 5 0.05 1.27
2:59 am 02:59 Cloudy with Light Rain 75 23.9 72 22.2 90 90 ESE 6 9 30.04 1017 8 13 0.07 1.78
3:59 am 03:59 Cloudy 75 23.9 73 22.8 94 94 S 6 9 30.04 1017 10 16 0.02 0.51
4:59 am 04:59 Cloudy 77 25 74 23.3 90 90 SE 7 11 30.04 1017 7 11 0.00 0.00
5:06 am 05:06 Mostly Cloudy 77 25 74 23.3 90 90 SE 9 15 30.03 1017 8 13 0.00 0.00
5:59 am 05:59 Mostly Cloudy with Mist and Fog 77 25 74 23.3 90 90 SE 9 15 30.04 1017 3 4 0.04 1.02
6:04 am 06:04 Cloudy with Light Rain 77 25 74 23.3 90 90 SE 14 22 30.06 1018 4 6 0.02 0.51
6:07 am 06:07 Cloudy with Light Rain 77 25 74 23.3 90 90 SSE 10 17 30.06 1018 4 6 0.02 0.51
6:18 am 06:18 Cloudy with Rain 76 24.4 73 22.8 91 91 SSE 13 20 30.06 1018 2 3 0.10 2.54
6:24 am 06:24 Cloudy with Light Rain 76 24.4 73 22.8 91 91 SE 7 11 30.06 1018 3 5 0.10 2.54
6:59 am 06:59 Mostly Cloudy with Light Rain 75 23.9 72 22.2 90 90 SE 6 9 30.05 1018 9 14 0.12 3.05
7:52 am 07:52 Mostly Cloudy 76 24.4 73 22.8 91 91 SE 13 20 30.06 1018 10 16 0.00 0.03
7:59 am 07:59 Mostly Cloudy 76 24.4 73 22.8 91 91 SE 10 17 30.06 1018 10 16 0.00 0.03
8:08 am 08:08 Mostly Cloudy 76 24.4 73 22.8 91 91 SSE 10 17 30.06 1018 10 16 0.00 0.00
8:59 am 08:59 Cloudy 77 25 72 22.2 85 85 SSE 10 17 30.06 1018 10 16 0.00 0.00
9:51 am 09:51 Cloudy with Rain 74 23.3 72 22.2 94 94 VRB 6 9 30.06 1018 2 3 0.07 1.78
9:59 am 09:59 Cloudy with Light Rain 74 23.3 72 22.2 94 94 SE 7 11 30.06 1018 2 3 0.08 2.03
10:22 am 10:22 Mostly Cloudy with Light Rain 75 23.9 72 22.2 90 90 SSE 6 9 30.06 1018 7 11 0.02 0.51
10:59 am 10:59 Mostly Cloudy with Light Rain 75 23.9 73 22.8 94 94 SSE 7 11 30.07 1018 7 11 0.03 0.76
11:59 am 11:59 Cloudy 76 24.4 72 22.2 88 88 SSE 13 20 30.07 1018 10 16 0.01 0.25
12:35 pm 12:35 Cloudy 76 24.4 73 22.8 91 91 SSE 9 15 30.06 1018 10 16 0.00 0.03
12:48 pm 12:48 Mostly Cloudy 76 24.4 73 22.8 91 91 SSE 9 15 30.06 1018 10 16 0.00 0.03
12:59 pm 12:59 Cloudy 77 25 73 22.8 88 88 SE 8 13 30.04 1017 10 16 0.00 0.03
1:59 pm 13:59 Cloudy 78 25.6 73 22.8 85 85 SE 14 22 30.03 1017 10 16 0.00 0.00
2:21 pm 14:21 Cloudy 78 25.6 73 22.8 85 85 SE 12 19 30.03 1017 10 16 0.00 0.00
2:33 pm 14:33 Cloudy 78 25.6 73 22.8 85 85 SSE 16 26 30.03 1017 10 16 0.00 0.00
2:59 pm 14:59 Cloudy with Light Rain 78 25.6 73 22.8 85 85 SSE 13 20 30.03 1017 7 11 0.01 0.25
3:14 pm 15:14 Cloudy with Light Rain 77 25 73 22.8 88 88 SSE 10 17 30.03 1017 2 3 0.03 0.76
3:34 pm 15:34 Cloudy with Rain 76 24.4 73 22.8 91 91 SSE 14 22 30.03 1017 3 5 0.09 2.29
3:48 pm 15:48 Cloudy with Rain 76 24.4 73 22.8 91 91 SSE 9 15 30.03 1017 2 3 0.15 3.81
3:59 pm 15:59 Cloudy with Light Rain 76 24.4 73 22.8 91 91 SSE 7 11 30.02 1017 4 6 0.17 4.32
4:59 pm 16:59 Mostly Cloudy with Light Rain 75 23.9 72 22.2 90 90 SE 8 13 30.00 1016 10 16 0.03 0.76
5:59 pm 17:59 Cloudy with Light Rain 75 23.9 72 22.2 90 90 ESE 7 11 29.98 1015 9 14 0.00 0.03
6:31 pm 18:31 Cloudy 76 24.4 73 22.8 91 91 SSE 8 13 30.00 1016 10 16 0.00 0.03
6:59 pm 18:59 Cloudy with Light Rain 75 23.9 72 22.2 90 90 SSE 8 13 29.99 1016 9 14 0.00 0.03
7:53 pm 19:53 Mostly Cloudy 75 24 73 23 94 94 S 6 9 30.00 1016 10 16 0.01 0.25
7:59 pm 19:59 Mostly Cloudy 75 23.9 72 22.2 90 90 SSE 7 11 29.99 1016 10 16 0.01 0.25
8:59 pm 20:59 Mostly Cloudy 75 23.9 71 21.7 88 88 SE 8 13 30.01 1016 10 16 0.00 0.00
9:59 pm 21:59 Mostly Cloudy 75 23.9 72 22.2 90 90 S 6 9 30.04 1017 10 16 0.00 0.00
10:48 pm 22:48 Mostly Cloudy 75 23.9 71 21.7 88 88 S 5 7 30.03 1017 10 16 0.00 0.00
10:59 pm 22:59 Mostly Cloudy 74 23.3 71 21.7 91 91 SSE 6 9 30.04 1017 10 16 0.00 0.00
11:59 pm 23:59 Mostly Cloudy 74 23.3 71 21.7 91 91 SE 5 7 30.03 1017 10 16 0.00 0.00

Powered by AerisWeather